Location: Silent Lake
(44.9206°N, 78.0708°W)
Time: 09:59:37
(UTC-04:00)

Daily predictions for brighter satellites

Satellite Brightness Start Highest point End
(mag) Time Altitude Azimuth Time Altitude Azimuth Time Altitude Azimuth
COSMOS 2455 3.8 19:24:49 10° SW 19:30:41 54° NW 19:36:37 10° NNE
ATLAS CENTAUR R/B 4.0 19:28:08 10° S 19:33:02 42° ESE 19:46:40 10° NE
Cosmos 921 Rocket 4.2 19:31:23 10° NNW 19:35:27 46° WSW 19:39:25 10° S
Meteor 1-22 Rocket 4.3 19:30:32 10° SSE 19:35:40 48° E 19:40:44 10° NNE
Cosmos 2219 Rocket 2.9 19:32:23 10° SW 19:37:55 60° WNW 19:43:33 10° NNE
USA 215 3.5 19:31:42 10° ENE 19:38:01 49° SE 19:44:18 10° SSW
Cosmos 1441 Rocket 3.6 19:34:53 10° NNW 19:38:37 65° W 19:42:18 10° S
Cosmos 2233 Rocket 4.1 19:33:04 10° S 19:39:22 89° ESE 19:45:45 10° N
Cosmos 2278 Rocket 2.8 19:33:58 10° NNW 19:39:33 62° WSW 19:45:07 10° S
HJ-1C 3.9 19:36:59 10° SE 19:40:06 37° ENE 19:43:16 10° N
H-2A R/B 4.4 19:37:45 10° ESE 19:40:25 18° ENE 19:43:04 10° NNE
Meteor 2-5 Rocket 4.2 19:34:55 10° NNW 19:40:33 69° W 19:46:03 10° S
Meteor 1-29 4.1 19:39:39 10° NE 19:42:35 24° E 19:45:27 10° SSE
Timation 1 Rocket 4.5 19:37:12 10° NNW 19:43:05 57° ENE 19:48:57 10° SE
TIMED 4.5 19:38:42 10° NNW 19:43:07 79° ENE 19:47:29 10° SSE
Cosmos 2297 3.7 19:37:32 10° NNW 19:43:15 74° ENE 19:48:52 10° SSE
Meteor 1-24 Rocket 3.7 19:39:26 10° N 19:45:10 78° ENE 19:50:40 10° SSE
METEOR-M 4.2 19:40:10 10° SSE 19:45:25 61° ENE 19:50:43 10° N
Meteor 1-28 Rocket 3.1 19:41:48 10° NNE 19:45:30 61° E 19:49:10 10° S
Cosmos 1378 3.2 19:43:02 10° N 19:46:45 56° E 19:50:24 10° SSE
Cosmos 1707 3.5 19:45:36 10° NNW 19:49:24 56° W 19:53:09 10° S
Cosmos 1607 4.2 19:43:40 10° SW 19:49:50 76° NW 19:56:01 10° NNE
Cosmos 1076 Rocket 3.8 19:46:38 10° N 19:50:49 47° ENE 19:55:00 10° SSE
FENGYUN 3A 4.2 19:46:55 10° SE 19:51:48 37° ENE 19:56:43 10° N
SJ-6B 3.1 19:48:36 10° S 19:52:33 76° WSW 19:56:38 10° NNW
Cosmos 1452 Rocket 3.8 19:50:42 10° N 19:55:46 46° ENE 20:00:48 10° SE
Cosmos-2242 3.9 19:52:52 10° SSE 19:56:35 28° E 20:00:19 10° NNE
ATLAS 3B R/B 3.9 19:49:56 10° WSW 19:57:16 49° NW 20:04:21 10° NNE
Cosmos 2369 Rocket 3.7 19:54:47 10° N 19:58:47 19° NE 20:01:47 13° E
Helios 1B rocket 2.6 19:55:16 10° NNE 19:59:16 49° E 20:03:15 10° S
Cosmos 1758 4.0 19:56:40 10° SSE 20:00:18 32° E 20:03:59 10° NNE
SeaSat 1 3.6 19:58:44 10° ENE 20:02:27 21° ESE 20:06:10 10° SSE
Cosmos 1408 Rocket 3.6 19:59:43 10° N 20:04:03 57° E 20:08:18 10° SSE
Resurs 01 Rocket 1.6 20:05:27 10° SSE 20:09:54 89° E 20:14:23 10° NNW
Cosmos 1943 Rocket 4.2 20:07:46 10° NNE 20:10:05 12° NE 20:12:21 10° ENE
Okean 3 Rocket 4.4 20:06:03 10° NNW 20:10:29 55° W 20:14:55 10° S
NOSS 3-2 (A) 3.5 20:06:16 10° SSW 20:12:17 65° ESE 20:18:52 10° NE
FengYun 1-2 T 4.2 20:07:35 10° SSE 20:13:05 75° ENE 20:18:35 10° N
Cosmos 2333 Rocket 3.5 20:07:40 10° SW 20:13:10 43° WNW 20:18:40 10° NNE
Resurs 1-3 3.5 20:09:34 10° SSE 20:13:57 77° ENE 20:18:22 10° N
USA 238 DEB 4.3 20:10:26 10° SW 20:17:25 62° NW 20:24:24 10° NE
USA 238 4.3 20:10:32 10° SW 20:17:30 62° NW 20:24:31 10° NE
CZ-4B DEB 2.9 20:15:36 16° SSE 20:18:02 53° ENE 20:21:15 10° N
Cosmos 1420 Rocket 4.5 20:14:49 10° N 20:19:52 42° ENE 20:23:00 21° ESE
ATLAS CENTAUR R/B 3.3 20:19:39 10° NW 20:23:16 28° WSW 20:26:38 10° S
Meteor 1-21 Rocket 4.1 20:19:15 10° N 20:24:48 65° ENE 20:30:17 10° SSE
Cosmos 1743 Rocket 3.7 20:26:25 10° N 20:30:48 53° ENE 20:33:29 22° SSE
In-Cosmos 22 4.3 20:25:28 10° NNW 20:31:16 85° W 20:37:02 10° S
ALOS 2.2 20:27:02 10° SSE 20:31:43 82° ENE 20:36:25 10° N
Cosmos 1674 3.3 20:28:14 10° N 20:31:51 36° ENE 20:32:22 35° E
Nadezhda 4 Rocket 4.0 20:25:36 10° N 20:31:53 64° E 20:38:02 10° SSE
Cosmos 1269 Rocket 4.4 20:29:31 10° S 20:34:22 38° ESE 20:39:14 10° NE
Cosmos 1092 Rocket 4.1 20:30:44 10° N 20:36:48 51° ENE 20:40:56 20° SE
GP-B 3.7 20:34:54 10° NNE 20:38:59 35° E 20:39:11 34° E
Spot 2 Rocket 4.4 20:34:52 10° S 20:39:44 49° W 20:44:38 10° NNW
Cosmos 1048 Rocket 4.4 20:36:25 10° SSE 20:41:16 37° ESE 20:46:06 10° NE
Cosmos 2237 Rocket 4.0 20:36:40 10° WSW 20:41:43 32° NW 20:46:47 10° N
TELKOM 3 4.0 20:42:02 10° WNW 20:44:05 43° NNW 20:44:05 43° NNW
Helios 1A 4.4 20:43:56 10° SSW 20:47:51 38° W 20:51:47 10° NNW
NOSS 3-2 (C) 3.4 20:43:07 10° SW 20:49:14 89° SE 20:55:59 10° NE
Envisat 3.6 20:50:02 35° E 20:50:33 35° ENE 20:55:09 10° N
CZ-4C R/B 3.8 20:45:49 10° WSW 20:50:52 35° NW 20:56:35 10° NNE
ASTEX 1 3.2 20:46:06 10° N 20:51:04 80° E 20:55:56 10° S
CENTAUR R/B 4.1 20:47:44 10° SSE 21:00:35 - NE 20:48:51 15° SSE
Cosmos 1634 Rocket 4.2 20:49:15 21° SSE 20:53:02 46° E 20:58:55 10° NNE
ATLAS 5 CENTAUR R/B 1.7 20:48:32 10° SSW 20:53:20 81° SE 20:58:35 10° NE
Cosmos 2026 Rocket 4.4 20:47:53 10° N 20:53:33 39° ENE 20:54:38 36° E
CZ-2D R/B 3.6 20:52:09 21° S 20:54:37 67° W 20:58:31 10° NNW
Cosmos 1953 2.9 20:51:53 10° SSW 20:55:49 57° WNW 20:59:45 10° N
SL-16 R/B 3.2 20:54:37 10° SW 21:00:05 47° WNW 21:05:36 10° NNE
USA 186 4.1 21:06:04 13° NNW 21:06:04 13° NNW 21:06:26 10° NNW
YAOGAN 11 4.2 21:09:24 55° NE 21:09:24 55° NE 21:13:12 10° N
H-2A R/B 3.6 21:14:39 24° NNE 21:14:39 24° NNE 21:17:01 10° N
H-2A R/B 4.0 21:12:11 20° SSW 21:14:26 39° W 21:18:08 10° NNW
SJ-11-01 4.1 21:14:09 72° ESE 21:14:27 75° ENE 21:19:08 10° N
Cosmos 2195 Rocket 4.5 21:08:46 10° N 21:15:04 65° E 21:16:41 48° SE
Cosmos 724 4.2 21:09:54 10° SSW 21:15:51 90° WNW 21:22:00 10° NE
USA 215 3.7 21:14:42 10° NE 21:21:07 60° NNW 21:27:31 10° WSW
SPOT 5 4.2 21:26:41 24° NNE 21:26:41 24° NNE 21:28:42 10° N
Cosmos 1110 Rocket 4.4 21:26:30 10° NNW 21:31:01 51° NE 21:31:01 51° NE
Cosmos 1470 4.0 21:34:27 38° NNW 21:34:27 38° NNW 21:37:09 10° N
ERS-1 Rocket 2.9 21:34:40 82° SW 21:34:47 83° WSW 21:39:50 10° NNW
Cosmos 1627 Rocket 4.4 21:29:29 10° N 21:35:42 89° E 21:36:58 60° S
SeaSat 1 3.0 21:35:26 10° NNE 21:40:17 58° WNW 21:45:07 10° SW
Cosmos 1842 Rocket 4.4 21:39:26 40° WSW 21:40:18 47° WNW 21:44:31 10° N
Cosmos 2369 Rocket 2.1 21:37:52 10° NNW 21:43:33 84° WSW 21:43:36 83° SW
Cosmos 2263 4.2 21:37:48 10° NNW 21:43:15 71° NNE 21:43:15 71° NNE
Cosmos 1603 4.5 21:41:32 10° SW 21:47:06 51° WNW 21:52:45 10° NNE
Cosmos 839 Rocket 4.1 21:40:29 10° NW 21:48:23 84° WSW 21:49:20 69° SSE
Cosmos 2151 4.3 21:48:37 10° NNW 21:51:24 36° NW 21:51:24 36° NW
Cosmos 1943 Rocket 2.8 21:49:35 10° NNW 21:53:53 46° NNE 21:53:53 46° NNE
Meteor 1-11 4.5 21:57:19 10° NNW 22:02:51 67° W 22:02:51 67° W
Cosmos 1655 Rocket 4.3 22:06:17 10° NNW 22:12:24 61° W 22:12:38 60° WSW
Cosmos 2279 Rocket 4.3 22:20:11 61° NNW 22:20:11 61° NNW 22:25:30 10° N
H-2A R/B 4.1 22:24:26 19° N 22:24:26 19° N 22:26:00 10° N
ATLAS 5 CENTAUR R/B 4.1 22:34:44 10° W 22:38:42 23° NNW 22:41:49 14° NNE
Terra 4.4 22:43:33 14° N 22:43:33 14° N 22:44:16 10° N
CENTAUR R/B 4.4 22:47:41 21° NNE 22:47:41 21° NNE 22:49:54 10° NE
